Torna al catalogo

DMSP 5D-2 F11 DEB

AttivoPO
NORAD 28345·DEBRIS·🇺🇸 United States

Lanciato Nov 28, 1991 da Vandenberg Space Force Base

Loading…

Prossimi Passaggi (prossime 24 ore)

TLE

AggiornatoSource: Space-Track

Epoca: Sep 14, 2026, 18:34 UTC

1 28345U 91082BJ  26257.77413864  .00024473  00000-0  34090-2 0  9992
2 28345  98.6110  11.3488 0038937 325.2147  34.6517 14.77218177142758

Traccia DMSP 5D-2 F11 DEB in tempo reale con AllMySat

Download on the App Store